Date String (YYYY-MM-DD hh:mm:ss) UTC,Instrument flags,absolute air pressure of the measurement (hPa),sample flow rate (lpm),inlet stack bypass flow (lpm),air temperature of the measurement (°C),ambient temperature measured by the external sensor (°C),aerosol sample conditioner tube jacket temperature (°C),OPC LED temperature (°C),internal box temperature (°C),relative humidity of the measurement (%),span deviation,mass concentration of particles derived from Lorenz-Mie calculation of OPC scattering (μg/m³),mass concentration of particles derived from Lorenz-Mie calculation of OPC scattering (μg/m³),mass concentration of particles derived from Lorenz-Mie calculation of OPC scattering (μg/m³)
DateTimeUTC,F1_M11,P_M11,Q1_M11,Q2_M11,T1_M11,T2_M11,T3_M11,T4_M11,T5_M11,U1_M11,ZSPAN_M11,X0_M11,X2_M11,X1_M11
2023-06-16 10:00:00,SystemResetWarning,0830.8,5.00,000.00,030.5,028.8,000.0,039.1,032.0,27.4,0000.0,0005.52,0003.25,0002.69
2023-06-16 10:01:00,SystemResetWarning,0830.8,5.00,000.00,030.5,028.8,000.0,039.1,031.9,27.4,0000.0,0005.48,0003.28,0002.69
2023-06-16 10:02:00,SystemResetWarning,0830.8,5.01,000.00,030.5,028.8,000.0,039.1,032.0,27.6,0000.0,0005.67,0003.32,0002.71
2023-06-16 10:03:00,SystemResetWarning,0830.8,5.00,000.00,030.5,028.8,000.0,039.1,032.0,27.4,0000.0,0005.75,0003.36,0002.75
2023-06-16 10:04:00,SystemResetWarning,0830.8,5.00,000.00,030.5,028.9,000.0,039.1,032.0,27.3,0000.0,0005.81,0003.39,0002.78
2023-06-16 10:05:00,SystemResetWarning,0830.8,5.00,000.00,030.5,028.9,000.0,039.1,032.0,27.3,0000.0,0005.89,0003.39,0002.80
2023-06-16 10:06:00,SystemResetWarning,0830.8,5.00,000.00,030.5,028.9,000.0,039.1,032.0,27.1,0000.0,0005.99,0003.38,0002.81
2023-06-16 10:07:00,SystemResetWarning,0830.8,5.00,000.00,030.5,028.9,000.0,039.1,032.0,27.2,0000.0,0005.92,0003.37,0002.84
2023-06-16 10:08:00,SystemResetWarning,0830.8,5.00,000.00,030.5,028.9,000.0,039.1,032.0,27.3,0000.0,0006.28,0003.40,0002.87
2023-06-16 10:09:00,SystemResetWarning,0830.8,5.00,000.00,030.5,028.9,000.0,039.1,032.0,27.3,0000.0,0006.29,0003.41,0002.90
2023-06-16 10:10:00,SystemResetWarning,0830.7,5.00,000.00,030.5,028.9,000.0,039.1,032.0,27.4,0000.0,0006.99,0003.42,0002.91
2023-06-16 10:11:00,SystemResetWarning,0830.8,5.00,000.00,030.5,028.9,000.0,039.1,032.0,27.5,0000.0,0007.39,0003.43,0002.92
2023-06-16 10:12:00,SystemResetWarning,0830.7,5.00,000.00,030.5,028.9,000.0,039.1,032.0,27.6,0000.0,0007.46,0003.44,0002.94
2023-06-16 10:13:00,SystemResetWarning,0830.7,5.00,000.00,030.5,028.9,000.0,039.1,032.0,27.5,0000.0,0007.83,0003.44,0002.97
2023-06-16 10:14:00,SystemResetWarning,0830.7,5.00,000.00,030.5,028.9,000.0,039.1,032.0,27.5,0000.0,0008.12,0003.42,0002.95
2023-06-16 10:15:00,SystemResetWarning,0830.7,5.00,000.00,030.5,028.9,000.0,039.1,032.0,27.4,0000.0,0008.02,0003.40,0002.94
2023-06-16 10:16:00,SystemResetWarning,0830.7,5.00,000.00,030.5,028.9,000.0,039.2,032.0,27.3,0000.0,0007.99,0003.38,0002.93
2023-06-16 10:17:00,SystemResetWarning,0830.7,5.00,000.00,030.5,028.9,000.0,039.2,032.0,27.3,0000.0,0007.97,0003.36,0002.93
2023-06-16 10:18:00,SystemResetWarning,0830.7,5.00,000.00,030.5,028.9,000.0,039.2,031.9,27.3,0000.0,0007.91,0003.34,0002.92
2023-06-16 10:19:00,SystemResetWarning,0830.7,5.00,000.00,030.6,028.9,000.0,039.2,032.0,27.3,0000.0,0007.79,0003.34,0002.92
2023-06-16 10:20:00,SystemResetWarning,0830.7,5.00,000.00,030.6,028.9,000.0,039.2,032.0,27.2,0000.0,0007.83,0003.35,0002.91
2023-06-16 10:21:00,SystemResetWarning,0830.7,5.03,000.00,030.6,028.9,000.0,039.2,032.0,27.2,0000.0,0007.51,0003.36,0002.90
2023-06-16 10:22:00,SystemResetWarning,0830.7,4.98,000.00,030.6,028.9,000.0,039.2,032.0,27.2,0000.0,0007.23,0003.35,0002.91
2023-06-16 10:23:00,SystemResetWarning,0830.7,4.99,000.00,030.6,028.9,000.0,039.2,032.0,27.2,0000.0,0006.99,0003.33,0002.90
2023-06-16 10:24:00,SystemResetWarning,0830.7,5.01,000.00,030.6,028.9,000.0,039.2,032.0,27.2,0000.0,0006.62,0003.32,0002.88
2023-06-16 10:25:00,SystemResetWarning,0830.7,5.01,000.00,030.6,028.9,000.0,039.2,032.0,27.2,0000.0,0005.75,0003.33,0002.88
2023-06-16 10:26:00,SystemResetWarning,0830.7,5.00,000.00,030.6,028.9,000.0,039.2,032.0,27.2,0000.0,0005.88,0003.35,0002.89
2023-06-16 10:27:00,SystemResetWarning,0830.6,5.00,000.00,030.6,028.9,000.0,039.2,032.0,27.2,0000.0,0005.95,0003.39,0002.91
2023-06-16 10:28:00,SystemResetWarning,0830.6,5.00,000.00,030.6,028.9,000.0,039.2,032.0,27.1,0000.0,0005.73,0003.41,0002.93
2023-06-16 10:29:00,SystemResetWarning,0830.6,5.00,000.00,030.6,028.9,000.0,039.2,032.0,27.0,0000.0,0005.72,0003.42,0002.93
2023-06-16 10:30:00,SystemResetWarning,0830.6,5.00,000.00,030.6,028.9,000.0,039.2,032.0,26.9,0000.0,0005.66,0003.42,0002.91
2023-06-16 10:31:00,SystemResetWarning,0830.6,5.00,000.00,030.6,028.9,000.0,039.2,032.0,26.9,0000.0,0005.39,0003.38,0002.90
2023-06-16 10:32:00,SystemResetWarning,0830.6,4.99,000.00,030.6,028.9,000.0,039.2,032.0,26.9,0000.0,0005.06,0003.34,0002.90
2023-06-16 10:33:00,SystemResetWarning,0830.6,5.00,000.00,030.6,028.9,000.0,039.2,032.0,26.9,0000.0,0005.05,0003.34,0002.89
2023-06-16 10:34:00,SystemResetWarning,0830.6,5.00,000.00,030.6,028.9,000.0,039.2,032.0,26.8,0000.0,0005.11,0003.35,0002.91
2023-06-16 10:35:00,SystemResetWarning,0830.6,5.00,000.00,030.6,028.9,000.0,039.2,032.0,26.8,0000.0,0005.09,0003.36,0002.93
2023-06-16 10:36:00,SystemResetWarning,0830.5,5.00,000.00,030.6,028.9,000.0,039.2,032.0,26.8,0000.0,0005.07,0003.34,0002.94
2023-06-16 10:37:00,SystemResetWarning,0830.6,5.00,000.00,030.6,028.9,000.0,039.2,032.0,26.8,0000.0,0005.36,0003.30,0002.93
2023-06-16 10:38:00,SystemResetWarning,0830.5,5.00,000.00,030.6,028.9,000.0,039.2,032.0,26.8,0000.0,0005.40,0003.28,0002.91
2023-06-16 10:39:00,SystemResetWarning,0830.6,5.01,000.00,030.6,028.9,000.0,039.2,032.0,26.9,0000.0,0005.32,0003.26,0002.88
2023-06-16 10:40:00,SystemResetWarning,0830.6,5.00,000.00,030.6,028.9,000.0,039.2,032.0,26.9,0000.0,0005.43,0003.24,0002.88
2023-06-16 10:41:00,SystemResetWarning,0830.6,5.00,000.00,030.6,028.9,000.0,039.2,032.0,26.9,0000.0,0005.47,0003.24,0002.90
2023-06-16 10:42:00,SystemResetWarning,0830.6,5.00,000.00,030.6,028.9,000.0,039.2,032.0,26.9,0000.0,0005.63,0003.28,0002.91
2023-06-16 10:43:00,SystemResetWarning,0830.7,5.00,000.00,030.6,028.9,000.0,039.2,032.0,26.9,0000.0,0005.64,0003.29,0002.92
2023-06-16 10:44:00,SystemResetWarning,0830.7,5.00,000.00,030.6,028.9,000.0,039.2,032.0,26.9,0000.0,0005.62,0003.29,0002.93
2023-06-16 10:45:00,SystemResetWarning,0830.8,5.00,000.00,030.6,028.9,000.0,039.2,032.0,27.0,0000.0,0005.68,0003.31,0002.93
2023-06-16 10:46:00,SystemResetWarning,0830.8,5.00,000.00,030.6,028.9,000.0,039.2,032.0,27.0,0000.0,0005.89,0003.32,0002.93
2023-06-16 10:47:00,SystemResetWarning,0830.9,5.00,000.00,030.6,028.9,000.0,039.2,032.0,27.0,0000.0,0006.21,0003.36,0002.94
2023-06-16 10:48:00,SystemResetWarning,0830.9,5.00,000.00,030.6,028.8,000.0,039.2,032.0,26.9,0000.0,0005.75,0003.37,0002.94
2023-06-16 10:49:00,SystemResetWarning,0831.0,5.00,000.00,030.6,028.8,000.0,039.2,032.0,26.9,0000.0,0005.76,0003.40,0002.97
2023-06-16 10:50:00,SystemResetWarning,0831.0,5.00,000.00,030.6,028.8,000.0,039.2,032.0,27.0,0000.0,0005.82,0003.41,0002.97
2023-06-16 10:51:00,SystemResetWarning,0831.0,5.00,000.00,030.6,028.8,000.0,039.2,032.0,26.8,0000.0,0006.13,0003.44,0002.96
2023-06-16 10:52:00,SystemResetWarning,0831.1,5.00,000.00,030.6,028.8,000.0,039.2,032.0,26.8,0000.0,0006.08,0003.44,0002.95
2023-06-16 10:53:00,SystemResetWarning,0831.0,5.00,000.00,030.6,028.8,000.0,039.2,032.0,26.8,0000.0,0005.95,0003.41,0002.94
2023-06-16 10:54:00,SystemResetWarning,0831.0,5.00,000.00,030.6,028.8,000.0,039.2,031.9,26.8,0000.0,0006.16,0003.44,0002.95
2023-06-16 10:55:00,SystemResetWarning,0831.0,5.00,000.00,030.5,028.8,000.0,039.2,031.9,26.9,0000.0,0006.24,0003.45,0002.97
2023-06-16 10:56:00,SystemResetWarning,0831.0,5.00,000.00,030.5,028.8,000.0,039.2,031.9,26.8,0000.0,0006.21,0003.45,0002.97
2023-06-16 10:57:00,SystemResetWarning,0831.0,5.00,000.00,030.5,028.8,000.0,039.2,032.0,26.8,0000.0,0006.09,0003.44,0002.96
2023-06-16 10:58:00,SystemResetWarning,0831.0,5.00,000.00,030.5,028.8,000.0,039.2,031.9,26.8,0000.0,0005.84,0003.43,0002.94
2023-06-16 10:59:00,SystemResetWarning,0831.0,5.00,000.00,030.5,028.8,000.0,039.2,031.9,26.9,0000.0,0005.84,0003.44,0002.95
